Beaumont, TX

9:25 PM CST on January 19, 2018 (GMT -0600)
Southeast Texas Regional

Weather History for KBPT - December, 2012

Change the Weather History Date:

Monday, December 10, 2012

  Actual Average Record
Temperature  
Mean Temperature 56 °F 55 °F  
Max Temperature 72 °F 65 °F 86 °F (1918)
Min Temperature 40 °F 46 °F 24 °F (1978)
Degree Days  
Heating Degree Days 9 11  
Month to date heating degree days 13 99  
Since 1 July heating degree days 206 294  
Cooling Degree Days 0 1  
Month to date cooling degree days 42 10  
Year to date cooling degree days 3177 2865  
Moisture  
Dew Point 47 °F    
Average Humidity 71    
Maximum Humidity 100    
Minimum Humidity 41    
Precipitation  
Precipitation 0.68 in 0.16 in 3.69 in (1964)
Month to date precipitation 3.99 1.61  
Year to date precipitation 61.35 56.79  
Snow  
Snow 0.00 in 0.00 in 0.00 in ()
Month to date snowfall 0.0 0.0  
Since 1 July snowfall 0.0 0.0  
Snow Depth 0.00 in    
Sea Level Pressure  
Sea Level Pressure 29.91 in    
Wind  
Wind Speed 15 mph (NNW)    
Max Wind Speed 30 mph    
Max Gust Speed 38 mph    
Visibility 9 miles    
Events Rain , Thunderstorm    
T = Trace of Precipitation, MM = Missing Value Source: NWS Daily Summary

Daily Weather History Graph

Daily Weather History Graph

Search for Another Location

Airport or City:

Trip Planner

Search our weather history database for the weather conditions in past years. The results will help you decide how hot, cold, wet, or windy it might be!

Date:

Astronomy

Dec. 10, 2012 Rise Set
Actual Time 7:01 AM CST 5:16 PM CST
Civil Twilight 6:35 AM CST 5:43 PM CST
Nautical Twilight 6:05 AM CST 6:12 PM CST
Astronomical Twilight 5:36 AM CST 6:42 PM CST
Moon 3:53 AM CST (12/10) 3:00 PM CST (12/10)
Length of Visible Light 11h 08m
Length of Day
10h 15m
Waning Crescent, 10% of the Moon is Illuminated
Dec 10
Waning Crescent
Dec 13
New
Dec 19
First Quarter
Dec 28
Full
Jan 4
Last Quarter

Hourly Weather History & Observations

Time (CST) Temp. Windchill Dew Point Humidity Pressure Visibility Wind Dir Wind Speed Gust Speed Precip Events Conditions
12:53 AM 70.0 °F - 69.1 °F 97% 29.80 in 10.0 mi South 5.8 mph - N/A   Mostly Cloudy
1:53 AM 71.1 °F - 69.1 °F 93% 29.78 in 10.0 mi South 8.1 mph - N/A   Overcast
2:43 AM 71.6 °F - 69.8 °F 94% 29.78 in 10.0 mi SSW 6.9 mph - N/A Thunderstorm Overcast
2:53 AM 71.1 °F - 69.1 °F 93% 29.77 in 10.0 mi SSW 5.8 mph - N/A Thunderstorm Overcast
3:08 AM 71.6 °F - 69.8 °F 94% 29.77 in 9.0 mi NNW 12.7 mph 17.3 mph N/A Thunderstorm Overcast
3:17 AM 66.2 °F - 64.4 °F 94% 29.76 in 10.0 mi NW 23.0 mph 29.9 mph 0.00 in Rain , Thunderstorm Light Rain
3:26 AM 62.6 °F - 60.8 °F 94% 29.79 in 5.0 mi NW 13.8 mph 29.9 mph 0.02 in Rain , Thunderstorm Heavy Thunderstorms and Rain
3:32 AM 62.6 °F - 60.8 °F 94% 29.79 in 1.8 mi NNW 16.1 mph 23.0 mph 0.09 in Rain , Thunderstorm Heavy Thunderstorms and Rain
3:34 AM 62.6 °F - 60.8 °F 94% 29.78 in 1.2 mi NW 16.1 mph - 0.14 in Rain , Thunderstorm Heavy Thunderstorms and Rain
3:45 AM 60.8 °F - 60.8 °F 100% 29.79 in 1.5 mi NNW 19.6 mph 23.0 mph 0.54 in Rain , Thunderstorm Heavy Thunderstorms and Rain
3:53 AM 60.1 °F - 59.0 °F 96% 29.80 in 2.5 mi NNW 18.4 mph 27.6 mph 0.62 in Rain , Thunderstorm Heavy Thunderstorms and Rain
4:00 AM 59.0 °F - 57.2 °F 94% 29.80 in 4.0 mi NNW 17.3 mph - 0.03 in Rain , Thunderstorm Rain
4:23 AM 59.0 °F - 57.2 °F 94% 29.81 in 10.0 mi NNW 13.8 mph 29.9 mph 0.05 in Thunderstorm Overcast
4:33 AM 57.2 °F - 55.4 °F 94% 29.82 in 9.0 mi NNW 17.3 mph 26.5 mph 0.05 in Rain , Thunderstorm Light Rain
4:44 AM 57.2 °F - 57.2 °F 100% 29.82 in 8.0 mi NNW 11.5 mph 20.7 mph 0.05 in Rain Light Rain
4:53 AM 57.0 °F - 55.9 °F 96% 29.83 in 8.0 mi North 10.4 mph 20.7 mph 0.05 in   Overcast
5:53 AM 53.6 °F - 51.8 °F 94% 29.87 in 10.0 mi NNW 21.9 mph 28.8 mph N/A   Overcast
6:00 AM 53.6 °F - 50.0 °F 88% 29.88 in 10.0 mi NNW 24.2 mph 32.2 mph N/A   Overcast
6:53 AM 52.0 °F - 46.9 °F 83% 29.90 in 10.0 mi NNW 24.2 mph 31.1 mph N/A   Overcast
7:53 AM 46.9 °F - 43.0 °F 86% 29.94 in 10.0 mi NW 24.2 mph 33.4 mph 0.00 in   Overcast
8:53 AM 46.9 °F - 37.0 °F 68% 29.97 in 10.0 mi NNW 23.0 mph 32.2 mph N/A   Overcast
9:00 AM 46.4 °F 40.1 °F 37.4 °F 71% 29.98 in 10.0 mi NNW 15.0 mph 32.2 mph N/A   Overcast
9:53 AM 46.9 °F - 36.0 °F 66% 29.99 in 10.0 mi North 16.1 mph 23.0 mph N/A   Overcast
10:53 AM 48.0 °F - 34.0 °F 58% 30.00 in 10.0 mi NNW 19.6 mph 24.2 mph N/A   Overcast
11:53 AM 50.0 °F - 35.1 °F 57% 29.99 in 10.0 mi North 19.6 mph 25.3 mph N/A   Overcast
12:53 PM 50.0 °F - 34.0 °F 54% 29.98 in 10.0 mi NNW 13.8 mph 20.7 mph N/A   Overcast
1:53 PM 52.0 °F - 33.1 °F 49% 29.96 in 10.0 mi NNW 13.8 mph - 0.01 in   Overcast
2:53 PM 54.0 °F - 30.9 °F 41% 29.96 in 10.0 mi North 17.3 mph 24.2 mph N/A   Clear
3:53 PM 54.0 °F - 33.1 °F 45% 29.97 in 10.0 mi NNW 15.0 mph - N/A   Clear
4:53 PM 51.1 °F - 32.0 °F 48% 29.97 in 10.0 mi NNW 17.3 mph 20.7 mph N/A   Clear
5:53 PM 48.9 °F - 33.1 °F 54% 29.99 in 10.0 mi NNW 10.4 mph - N/A   Clear
6:53 PM 46.9 °F - 33.1 °F 59% 30.02 in 10.0 mi NNW 8.1 mph - N/A   Clear
7:53 PM 46.9 °F - 33.1 °F 59% 30.04 in 10.0 mi North 13.8 mph - N/A   Clear
8:53 PM 44.1 °F 39.0 °F 33.1 °F 65% 30.07 in 10.0 mi NNW 9.2 mph - N/A   Clear
9:53 PM 43.0 °F 36.8 °F 30.9 °F 62% 30.08 in 10.0 mi NNW 11.5 mph - N/A   Clear
10:53 PM 42.1 °F 35.2 °F 28.9 °F 60% 30.09 in 10.0 mi North 12.7 mph - N/A   Clear
11:53 PM 39.9 °F 32.9 °F 30.0 °F 68% 30.09 in 10.0 mi NNW 11.5 mph - N/A   Clear